Location: Les Salelles
(44.4192°N, 4.1044°E)
Time: 16:22:55
(UTC+00:00)

Cosmos 1844 Rocket - Pass Details

Date: 20 January 2021
Orbit: 825 x 843 km, 71.0° (Epoch: 25 February)

Event Time Altitude Azimuth Distance (km) Brightness Sun altitude
Rises 18:07:03 0° 196° (SSW) 3,386 6.2 -16.0°
Reaches altitude 10° 18:09:30 10° 195° (SSW) 2,455 5.5 -16.4°
Maximum altitude 18:15:06 71° 112° (ESE) 890 2.6 -17.4°
Enters shadow 18:19:29 17° 31° (NNE) 2,005 4.3 -18.1°
